Hourly Data Report for July 16, 2012

HALIFAX STANFIELD INT'L A
NOVA SCOTIA

44°52'48.060" N
63°30'00.050" W
145.40 m
8202250
71395
YHZ

Download Data

Hourly Data (July 2012)
Hourly Data Report for July 16, 2012
TIME
LST
Temp Definition
°C
Dew Point Definition
°C
Rel Hum Definition
%
Precip. Amount Definition
mm

Wind Dir Definition
10's deg

Wind Spd Definition
km/h
Visibility Definition
km
Stn Press Definition
kPa
Hmdx Definition


Wind Chill Definition


Weather Definition


00:00 15.9 15.4 97   16 13 6.4 99.84     Fog
01:00 15.6 15.2 97   16 15 8.0 99.77     Fog
02:00 15.5 15.0 97   16 15 8.0 99.72     Fog
03:00 15.4 15.0 97   18 13 9.7 99.66     Fog
04:00 15.4 15.0 97   16 15 9.7 99.59     Fog
05:00 15.4 15.0 97   17 15 16.1 99.56     Cloudy
06:00 15.8 15.0 95   16 15 16.1 99.53     Cloudy
07:00 16.5 15.1 91   18 17 19.3 99.54     Cloudy
08:00 16.6 15.3 92   18 13 19.3 99.52     Cloudy
09:00 16.4 15.9 97   18 11 19.3 99.51     Rain Showers
10:00 16.8 15.8 94   18 17 16.1 99.44     Cloudy
11:00 19.2 16.6 85   16 19 19.3 99.37     Cloudy
12:00 18.3 16.0 86   18 19 19.3 99.37     Cloudy
13:00 17.9 15.8 88   18 22 24.1 99.35     Cloudy
14:00 18.7 15.8 83   16 17 24.1 99.30     Cloudy
15:00 17.7 16.0 90   16 17 24.1 99.27     Cloudy
16:00 18.3 16.0 86   19 9 24.1 99.25     Cloudy
17:00 19.1 16.2 83   20 9 24.1 99.18     Mostly Cloudy
18:00 18.2 15.7 85   16 11 24.1 99.17     Mostly Cloudy
19:00 17.2 15.8 91   15 11 24.1 99.14     Cloudy
20:00 16.7 15.8 94   16 7 24.1 99.14     Cloudy
21:00 16.6 16.1 97   15 6 19.3 99.17     Cloudy
22:00 16.6 16.2 97   17 9 3.2 99.14     Fog
23:00 16.5 16.5 100   19 7 1.2 99.15     Fog

Notes on Data Quality.

Legend

  • E = Estimated
  • M = Missing
  • NA = Not Available*
  • [empty] = Indicates an unobserved value
Date modified: